SCP
0 0 0 0 0 0 0 -0 -0 0 0 0 0 0 -0 -0 0 0 0 0 0 0 0 0 0 0 -0 0 6 7 3 4 1 6 6 6 7 1 0 0 0 0 0 0
0 0 0 0 0 0 0 0 0 0 0 0 0 0 0 0 0 0 0 0 0 -0 0 0 0 0 0 10 13 13 7 9 9 8 2 1 2 2 0 0 0 0 0 0
0 0 0 0 0 0 0 0 0 0 0 0 0 0 0 0 0 -0 0 0 0 0 0 0 0 3 4 6 10 8 4 3 2 1 2 1 0 0 0 0 0 0 0 0
0 0 -0 0 0 0 0 0 0 0 0 0 0 0 -0 0 -0 0 0 0 0 0 0 0 0 1 2 6 4 4 5 3 1 1 1 0 2 1 0 1 0 0 0 0
0 0 0 0 0 0 0 0 0 0 0 0 0 0 0 0 0 0 0 0 0 0 0 0 0 0 1 2 2 4 4 4 2 2 0 0 0 1 2 1 1 2 1 0
0 0 0 0 0 0 0 0 0 0 0 0 0 0 0 0 0 0 0 0 0 0 0 0 0 0 0 1 1 3 4 3 2 1 1 0 0 0 1 1 3 7 3 1
-0 0 0 0 0 0 0 0 0 0 0 0 0 0 0 0 0 0 0 0 0 0 0 0 0 0 0 0 0 3 2 1 1 1 1 1 1 2 2 2 5 8 5 3
0 0 0 0 0 0 0 0 0 0 0 0 0 0 0 -0 0 0 0 0 0 0 0 0 0 0 0 0 1 1 1 1 2 3 2 2 2 2 4 5 4 5 3 3
0 0 0 0 0 -0 0 0 -0 0 0 0 0 0 0 0 0 0 0 0 0 0 0 0 0 0 1 1 2 2 2 2 1 2 4 4 5 5 4 2 3 3 3 2
0 0 0 0 0 0 0 0 0 0 0 0 0 0 0 0 0 0 0 0 0 0 0 0 0 0 0 0 1 2 3 3 3 3 1 1 2 2 3 4 3 1 2 1
0 0 0 0 0 0 0 0 0 0 0 0 0 0 0 0 0 0 0 0 0 0 0 0 0 0 0 0 0 1 1 2 2 2 2 2 2 2 2 2 1 0 0 1
0 0 -0 0 0 0 0 0 0 0 0 0 0 0 0 0 0 0 0 0 0 0 0 0 0 0 0 0 0 0 0 0 0 1 1 1 2 1 2 2 2 3 3 3
0 0 0 0 0 0 0 0 0 0 0 0 0 0 0 0 0 0 0 0 -0 0 0 0 0 0 0 0 0 0 0 0 0 0 0 0 1 1 1 1 1 1 2 3
0 0 0 0 0 0 0 0 0 0 0 0 0 0 0 0 0 0 0 0 0 0 0 0 0 0 0 0 0 0 0 0 0 0 0 0 0 0 0 0 0 0 0 0
0 0 0 0 0 0 0 0 0 0 0 0 0 0 0 0 0 0 -0 0 0 0 0 0 0 0 0 0 0 0 0 0 0 0 0 0 0 0 0 0 0 0 0 0
0 0 0 0 -0 -0 0 0 0 0 0 0 0 0 0 -0 -0 0 0 0 0 0 0 0 0 0 0 0 0 0 0 0 0 0 0 0 0 0 0 0 0 0 0 0
0 0 0 0 -0 -0 0 0 0 0 0 0 0 0 0 0 0 0 0 0 0 0 0 0 0 0 0 0 0 0 0 0 0 0 0 0 0 0 0 0 0 0 0 0
0 0 0 0 0 0 0 0 0 0 0 0 0 0 0 0 0 0 0 0 0 0 0 0 0 0 0 0 0 0 0 0 0 0 0 0 0 0 0 0 0 0 0 0
0 0 0 0 0 0 0 0 0 0 0 0 0 0 0 0 0 0 0 0 0 0 0 0 0 0 0 0 0 0 0 0 0 0 0 0 0 0 0 0 0 0 0 0
0 0 0 0 0 0 0 0 0 0 0 0 0 0 0 0 0 0 0 0 0 0 0 0 0 0 0 0 0 0 0 0 0 0 0 0 0 0 0 0 0 0 0 0
0 0 0 0 0 0 0 0 0 0 0 0 0 0 0 0 0 0 0 0 0 0 0 0 0 0 0 0 0 0 0 0 0 0 0 0 0 0 0 0 0 0 0 0
0 0 0 0 0 0 0 0 0 0 0 0 0 0 0 0 0 0 0 0 0 0 0 0 0 0 0 0 0 0 0 0 0 0 0 0 0 0 0 0 0 0 0 0
0 0 0 0 0 0 0 0 0 0 0 0 0 0 0 0 0 0 0 0 0 0 0 0 0 0 0 0 0 0 0 0 0 0 0 0 0 0 0 0 0 0 0 0
0 0 0 0 0 0 0 0 0 0 0 0 0 0 0 0 0 0 0 0 0 0 0 0 0 0 0 0 0 0 0 0 0 0 0 0 0 0 0 0 0 0 0 0
0 0 0 0 0 0 0 0 0 0 0 0 0 0 0 0 0 0 0 0 0 0 0 0 0 0 0 0 0 0 0 0 0 0 0 0 0 0 0 -0 -0 -0 -0 0
0 0 0 0 0 0 0 0 0 0 0 0 0 0 0 0 0 0 0 0 0 0 0 0 0 0 0 0 0 0 0 0 -0 -0 -0 -0 -0 -0 -0 -0 -0 -0 -0 0
Wind_Speed_500mb
52 32 43 51 49 39 42 44 41 30 39 32 29 34 35 31 38 30 31 28 30 32 37 55 67 60 61 57 58 42 29 36 72 45 42 38 38 44 44 45 39 31 32 12
38 50 48 47 48 48 44 47 39 31 33 30 24 30 31 32 26 31 27 16 23 31 32 31 52 67 64 40 53 55 40 48 46 48 33 27 19 4 12 20 47 38 30 23
51 37 51 49 46 48 47 45 38 32 15 20 26 26 32 30 28 41 14 14 20 9 19 32 48 45 36 38 46 53 43 44 44 44 47 28 27 28 31 17 28 30 37 2
47 53 49 49 52 47 43 39 39 29 27 28 31 27 34 38 37 23 23 16 6 16 22 25 39 38 43 53 52 53 46 35 48 40 45 39 36 46 51 40 51 52 41 34
49 44 43 45 52 46 38 35 36 35 28 26 35 21 26 22 31 17 24 15 17 4 16 29 17 27 13 47 55 60 52 46 46 54 36 37 36 44 41 41 56 72 70 76
46 47 39 39 42 35 37 35 36 36 30 31 39 32 25 19 25 27 26 31 23 10 9 15 19 10 13 45 55 61 62 54 52 43 39 43 35 44 58 66 70 70 66 65
37 42 36 38 30 40 37 30 19 22 24 29 38 35 26 23 15 26 30 38 25 9 22 19 25 24 22 15 1 48 42 49 50 54 54 49 55 62 53 49 67 62 60 62
33 38 56 42 43 37 37 32 20 30 26 29 39 36 33 37 21 33 31 30 18 11 26 18 18 17 18 15 9 12 26 42 47 52 58 61 61 74 64 54 55 59 61 58
19 34 43 42 33 44 38 37 40 33 25 13 16 26 25 28 24 27 30 25 23 19 18 15 18 12 14 14 11 6 13 21 30 43 55 54 62 70 67 52 51 62 49 56
6 14 25 27 29 33 30 30 28 19 27 30 23 12 9 15 20 24 21 27 24 13 19 19 17 22 22 22 22 14 6 3 13 22 27 34 39 41 39 38 41 44 39 46
34 8 20 31 34 40 28 29 27 19 21 20 18 3 16 9 19 15 18 29 29 13 23 21 22 14 20 27 31 31 29 25 21 19 7 8 9 25 38 24 24 35 18 27
32 8 12 20 22 7 25 38 37 17 27 12 6 3 20 23 15 28 35 46 20 23 26 25 23 22 22 28 29 27 27 32 27 20 22 23 21 19 18 11 6 6 5 16
11 18 8 16 13 11 27 31 22 9 7 13 7 8 4 23 22 26 47 23 22 18 15 29 21 17 23 19 21 23 22 24 24 19 13 13 19 18 17 9 8 6 6 5
4 9 11 8 4 6 16 8 19 19 8 6 15 8 1 19 31 38 49 16 13 19 9 10 7 14 14 13 14 17 17 16 18 15 12 7 4 7 5 9 16 18 18 20
0 5 27 10 15 6 12 13 18 21 20 11 18 20 30 16 4 29 47 16 13 15 15 10 14 26 21 16 12 12 13 16 8 9 6 7 7 5 7 14 18 23 29 33
26 12 22 7 19 13 8 13 12 18 27 16 17 13 26 52 60 25 14 16 21 21 17 16 31 21 28 23 18 14 11 14 14 16 13 12 12 15 20 24 27 28 33 40
1 3 2 4 22 22 20 27 24 26 36 25 17 20 19 22 16 15 13 15 13 17 27 27 26 21 17 17 12 11 14 17 18 19 18 17 19 23 29 32 39 42 45 54
9 5 7 4 13 5 16 14 16 11 14 16 13 21 19 24 23 23 23 20 18 17 19 19 17 13 10 9 12 16 18 20 22 24 25 25 26 27 30 35 42 49 55 60
10 7 2 2 10 2 13 11 10 10 13 17 24 24 23 21 15 25 20 14 10 9 9 10 8 9 12 16 17 18 24 28 29 29 29 29 30 34 37 42 48 54 59 64
7 9 6 6 4 3 16 19 13 7 11 19 26 14 11 6 5 9 5 7 8 4 5 9 14 18 20 24 24 26 29 33 35 35 35 36 38 40 43 47 56 59 55 50
7 5 7 9 5 4 12 12 5 8 7 18 20 17 14 10 12 13 4 6 6 8 11 12 15 23 28 27 28 31 36 39 40 39 41 41 42 46 47 47 44 48 56 61
9 9 7 6 8 9 3 8 7 9 16 30 18 15 10 6 6 7 10 10 13 14 17 21 24 27 30 33 35 40 42 42 42 42 44 45 44 43 41 49 57 53 48 57
9 2 5 11 2 15 26 29 23 31 23 17 19 6 8 9 14 15 16 19 22 26 28 30 33 35 33 34 34 37 41 43 45 44 41 43 48 52 51 48 55 59 51 48
11 16 3 5 14 15 30 24 24 19 17 8 6 6 8 14 19 22 22 23 25 27 28 28 28 30 32 32 36 42 43 37 36 39 48 57 60 52 53 52 48 47 43 44
5 7 2 3 15 22 17 23 17 13 9 5 9 13 17 20 21 20 25 29 24 25 32 34 36 38 41 40 40 38 36 40 48 57 67 62 52 51 48 41 41 39 34 31
6 9 7 4 16 20 17 13 11 10 12 14 16 19 21 22 27 31 23 23 27 32 35 40 39 37 36 35 36 39 45 60 66 63 52 46 44 41 41 40 37 24 27 29
Wind_Direction_500mb
206 219 215 216 224 226 245 241 226 242 235 178 222 245 231 242 254 258 244 244 226 246 248 223 219 222 230 237 223 216 185 190 200 200 189 202 207 222 221 222 235 239 254 246
203 223 223 219 221 230 237 252 251 247 236 187 203 240 244 246 249 246 254 298 231 228 225 225 204 215 223 196 199 211 194 188 193 192 187 188 196 230 237 261 254 266 279 299
213 215 223 227 222 226 225 235 244 252 237 267 262 255 253 260 246 252 211 243 278 297 202 209 211 172 174 192 204 215 221 218 219 222 204 212 258 286 259 239 241 252 254 199
217 236 202 221 232 221 228 223 244 234 239 241 201 249 248 226 227 202 213 204 30 15 164 168 168 189 200 196 207 212 213 215 215 219 215 218 226 210 248 220 254 264 257 257
226 221 233 221 226 227 231 218 221 242 242 248 253 255 263 224 181 202 188 152 108 8 30 43 155 165 213 207 209 205 207 210 209 212 220 215 237 226 231 230 246 250 252 241
225 248 226 219 236 221 219 232 221 216 224 229 233 242 245 232 207 190 181 144 112 81 77 49 50 81 201 215 213 212 207 206 210 222 225 228 257 250 234 232 224 234 244 231
228 228 244 246 233 209 227 217 217 222 226 238 225 224 235 240 240 193 149 121 125 130 94 44 32 11 4 353 290 189 204 219 225 229 233 236 247 239 257 245 226 231 228 222
210 224 216 207 210 209 215 216 219 215 217 236 222 223 216 228 155 113 102 95 117 117 73 50 56 2 346 347 322 247 227 231 234 242 241 237 242 235 240 236 229 240 239 237
238 264 201 217 210 217 200 211 232 250 275 257 255 248 81 101 121 135 143 152 112 102 98 71 64 34 42 31 23 342 253 246 234 231 234 241 239 240 241 253 245 237 235 233
289 238 222 221 238 245 246 216 228 250 242 245 249 210 107 183 154 162 158 136 123 133 111 101 71 81 70 62 47 38 43 281 180 215 246 244 247 249 236 237 246 248 223 213
220 92 278 228 221 216 203 218 242 245 272 253 218 65 352 17 49 47 15 143 138 136 123 117 107 94 72 64 67 62 64 51 47 35 5 330 288 234 229 251 263 267 124 163
180 173 244 233 224 306 288 218 213 220 248 250 44 231 326 347 80 70 53 303 138 108 108 92 93 90 91 88 79 58 59 72 86 87 101 96 100 97 82 96 139 237 123 160
229 169 198 220 291 241 250 231 248 318 45 245 235 149 331 343 348 130 141 197 223 156 99 101 97 84 76 69 90 77 52 56 59 69 82 97 90 89 113 109 114 129 143 179
66 240 235 169 88 152 264 340 229 201 191 183 216 187 21 9 353 349 283 184 103 137 104 7 45 138 152 138 53 78 72 53 44 26 360 352 319 336 323 261 264 271 275 263
321 41 302 121 148 226 260 299 307 269 224 156 254 235 140 105 11 221 274 354 331 325 326 297 287 106 112 115 110 32 45 11 32 55 13 359 330 276 290 286 289 287 282 280
197 196 241 139 219 169 215 268 266 289 293 230 191 235 161 177 186 223 28 3 19 357 330 346 79 80 73 74 65 58 26 8 3 349 342 345 315 305 301 306 307 302 297 290
239 308 283 273 193 157 232 211 219 200 224 222 205 98 139 127 106 69 50 56 47 28 34 53 64 68 58 47 40 20 355 348 341 329 323 320 314 318 317 306 295 288 284 283
337 325 281 269 67 215 79 30 10 349 223 226 212 98 86 76 92 91 82 68 60 45 37 39 45 51 41 16 346 339 330 326 319 315 315 313 311 303 295 287 286 289 290 288
332 290 87 195 195 246 152 79 48 28 107 47 72 67 86 74 80 77 89 69 56 50 8 357 339 334 328 321 312 309 309 311 310 309 310 308 304 299 293 293 291 288 289 291
147 313 119 204 240 265 80 60 38 19 108 27 90 108 108 127 246 109 110 89 64 24 339 319 300 295 301 303 299 304 300 303 305 307 304 302 301 299 294 291 293 300 304 302
139 120 173 224 176 281 116 98 341 216 101 68 91 74 70 42 61 117 143 280 281 279 284 286 287 287 296 299 302 303 302 302 302 301 302 301 297 297 302 306 293 283 282 286
139 164 198 229 194 236 152 116 351 94 75 85 86 69 76 46 339 285 294 289 288 283 282 289 287 294 300 301 302 304 299 296 299 299 299 299 300 297 289 284 288 291 290 287
170 202 187 181 210 126 84 88 75 86 99 96 110 88 25 337 312 308 305 312 313 311 306 302 298 299 300 302 298 300 300 298 295 295 293 288 283 286 292 287 286 294 296 291
186 129 157 218 48 82 90 99 97 95 99 74 18 3 323 307 300 304 306 309 306 301 310 312 312 308 308 305 302 303 299 289 281 278 282 288 294 294 294 298 300 303 302 302
153 237 172 176 165 155 99 99 103 94 70 12 340 333 320 313 305 306 299 295 300 314 314 314 313 304 300 298 295 295 306 291 285 286 293 298 299 302 305 306 305 300 300 304
8 31 209 58 59 91 104 97 73 47 25 5 354 339 323 314 305 304 296 317 322 314 311 306 302 299 299 301 295 288 288 286 292 294 297 300 305 311 313 314 314 310 311 311
Wind_Speed_850mb
52 32 43 51 49 39 42 44 41 30 39 32 29 34 35 31 38 30 31 28 30 32 37 55 67 60 61 57 58 42 29 36 72 45 42 38 38 44 44 45 39 31 32 12
38 50 48 47 48 48 44 47 39 31 33 30 24 30 31 32 26 31 27 16 23 31 32 31 52 67 64 40 53 55 40 48 46 48 33 27 19 4 12 20 47 38 30 23
51 37 51 49 46 48 47 45 38 32 15 20 26 26 32 30 28 41 14 14 20 9 19 32 48 45 36 38 46 53 43 44 44 44 47 28 27 28 31 17 28 30 37 2
47 53 49 49 52 47 43 39 39 29 27 28 31 27 34 38 37 23 23 16 6 16 22 25 39 38 43 53 52 53 46 35 48 40 45 39 36 46 51 40 51 52 41 34
49 44 43 45 52 46 38 35 36 35 28 26 35 21 26 22 31 17 24 15 17 4 16 29 17 27 13 47 55 60 52 46 46 54 36 37 36 44 41 41 56 72 70 76
46 47 39 39 42 35 37 35 36 36 30 31 39 32 25 19 25 27 26 31 23 10 9 15 19 10 13 45 55 61 62 54 52 43 39 43 35 44 58 66 70 70 66 65
37 42 36 38 30 40 37 30 19 22 24 29 38 35 26 23 15 26 30 38 25 9 22 19 25 24 22 15 1 48 42 49 50 54 54 49 55 62 53 49 67 62 60 62
33 38 56 42 43 37 37 32 20 30 26 29 39 36 33 37 21 33 31 30 18 11 26 18 18 17 18 15 9 12 26 42 47 52 58 61 61 74 64 54 55 59 61 58
19 34 43 42 33 44 38 37 40 33 25 13 16 26 25 28 24 27 30 25 23 19 18 15 18 12 14 14 11 6 13 21 30 43 55 54 62 70 67 52 51 62 49 56
6 14 25 27 29 33 30 30 28 19 27 30 23 12 9 15 20 24 21 27 24 13 19 19 17 22 22 22 22 14 6 3 13 22 27 34 39 41 39 38 41 44 39 46
34 8 20 31 34 40 28 29 27 19 21 20 18 3 16 9 19 15 18 29 29 13 23 21 22 14 20 27 31 31 29 25 21 19 7 8 9 25 38 24 24 35 18 27
32 8 12 20 22 7 25 38 37 17 27 12 6 3 20 23 15 28 35 46 20 23 26 25 23 22 22 28 29 27 27 32 27 20 22 23 21 19 18 11 6 6 5 16
11 18 8 16 13 11 27 31 22 9 7 13 7 8 4 23 22 26 47 23 22 18 15 29 21 17 23 19 21 23 22 24 24 19 13 13 19 18 17 9 8 6 6 5
4 9 11 8 4 6 16 8 19 19 8 6 15 8 1 19 31 38 49 16 13 19 9 10 7 14 14 13 14 17 17 16 18 15 12 7 4 7 5 9 16 18 18 20
0 5 27 10 15 6 12 13 18 21 20 11 18 20 30 16 4 29 47 16 13 15 15 10 14 26 21 16 12 12 13 16 8 9 6 7 7 5 7 14 18 23 29 33
26 12 22 7 19 13 8 13 12 18 27 16 17 13 26 52 60 25 14 16 21 21 17 16 31 21 28 23 18 14 11 14 14 16 13 12 12 15 20 24 27 28 33 40
1 3 2 4 22 22 20 27 24 26 36 25 17 20 19 22 16 15 13 15 13 17 27 27 26 21 17 17 12 11 14 17 18 19 18 17 19 23 29 32 39 42 45 54
9 5 7 4 13 5 16 14 16 11 14 16 13 21 19 24 23 23 23 20 18 17 19 19 17 13 10 9 12 16 18 20 22 24 25 25 26 27 30 35 42 49 55 60
10 7 2 2 10 2 13 11 10 10 13 17 24 24 23 21 15 25 20 14 10 9 9 10 8 9 12 16 17 18 24 28 29 29 29 29 30 34 37 42 48 54 59 64
7 9 6 6 4 3 16 19 13 7 11 19 26 14 11 6 5 9 5 7 8 4 5 9 14 18 20 24 24 26 29 33 35 35 35 36 38 40 43 47 56 59 55 50
7 5 7 9 5 4 12 12 5 8 7 18 20 17 14 10 12 13 4 6 6 8 11 12 15 23 28 27 28 31 36 39 40 39 41 41 42 46 47 47 44 48 56 61
9 9 7 6 8 9 3 8 7 9 16 30 18 15 10 6 6 7 10 10 13 14 17 21 24 27 30 33 35 40 42 42 42 42 44 45 44 43 41 49 57 53 48 57
9 2 5 11 2 15 26 29 23 31 23 17 19 6 8 9 14 15 16 19 22 26 28 30 33 35 33 34 34 37 41 43 45 44 41 43 48 52 51 48 55 59 51 48
11 16 3 5 14 15 30 24 24 19 17 8 6 6 8 14 19 22 22 23 25 27 28 28 28 30 32 32 36 42 43 37 36 39 48 57 60 52 53 52 48 47 43 44
5 7 2 3 15 22 17 23 17 13 9 5 9 13 17 20 21 20 25 29 24 25 32 34 36 38 41 40 40 38 36 40 48 57 67 62 52 51 48 41 41 39 34 31
6 9 7 4 16 20 17 13 11 10 12 14 16 19 21 22 27 31 23 23 27 32 35 40 39 37 36 35 36 39 45 60 66 63 52 46 44 41 41 40 37 24 27 29
Wind_Direction_850mb
206 219 215 216 224 226 245 241 226 242 235 178 222 245 231 242 254 258 244 244 226 246 248 223 219 222 230 237 223 216 185 190 200 200 189 202 207 222 221 222 235 239 254 246
203 223 223 219 221 230 237 252 251 247 236 187 203 240 244 246 249 246 254 298 231 228 225 225 204 215 223 196 199 211 194 188 193 192 187 188 196 230 237 261 254 266 279 299
213 215 223 227 222 226 225 235 244 252 237 267 262 255 253 260 246 252 211 243 278 297 202 209 211 172 174 192 204 215 221 218 219 222 204 212 258 286 259 239 241 252 254 199
217 236 202 221 232 221 228 223 244 234 239 241 201 249 248 226 227 202 213 204 30 15 164 168 168 189 200 196 207 212 213 215 215 219 215 218 226 210 248 220 254 264 257 257
226 221 233 221 226 227 231 218 221 242 242 248 253 255 263 224 181 202 188 152 108 8 30 43 155 165 213 207 209 205 207 210 209 212 220 215 237 226 231 230 246 250 252 241
225 248 226 219 236 221 219 232 221 216 224 229 233 242 245 232 207 190 181 144 112 81 77 49 50 81 201 215 213 212 207 206 210 222 225 228 257 250 234 232 224 234 244 231
228 228 244 246 233 209 227 217 217 222 226 238 225 224 235 240 240 193 149 121 125 130 94 44 32 11 4 353 290 189 204 219 225 229 233 236 247 239 257 245 226 231 228 222
210 224 216 207 210 209 215 216 219 215 217 236 222 223 216 228 155 113 102 95 117 117 73 50 56 2 346 347 322 247 227 231 234 242 241 237 242 235 240 236 229 240 239 237
238 264 201 217 210 217 200 211 232 250 275 257 255 248 81 101 121 135 143 152 112 102 98 71 64 34 42 31 23 342 253 246 234 231 234 241 239 240 241 253 245 237 235 233
289 238 222 221 238 245 246 216 228 250 242 245 249 210 107 183 154 162 158 136 123 133 111 101 71 81 70 62 47 38 43 281 180 215 246 244 247 249 236 237 246 248 223 213
220 92 278 228 221 216 203 218 242 245 272 253 218 65 352 17 49 47 15 143 138 136 123 117 107 94 72 64 67 62 64 51 47 35 5 330 288 234 229 251 263 267 124 163
180 173 244 233 224 306 288 218 213 220 248 250 44 231 326 347 80 70 53 303 138 108 108 92 93 90 91 88 79 58 59 72 86 87 101 96 100 97 82 96 139 237 123 160
229 169 198 220 291 241 250 231 248 318 45 245 235 149 331 343 348 130 141 197 223 156 99 101 97 84 76 69 90 77 52 56 59 69 82 97 90 89 113 109 114 129 143 179
66 240 235 169 88 152 264 340 229 201 191 183 216 187 21 9 353 349 283 184 103 137 104 7 45 138 152 138 53 78 72 53 44 26 360 352 319 336 323 261 264 271 275 263
321 41 302 121 148 226 260 299 307 269 224 156 254 235 140 105 11 221 274 354 331 325 326 297 287 106 112 115 110 32 45 11 32 55 13 359 330 276 290 286 289 287 282 280
197 196 241 139 219 169 215 268 266 289 293 230 191 235 161 177 186 223 28 3 19 357 330 346 79 80 73 74 65 58 26 8 3 349 342 345 315 305 301 306 307 302 297 290
239 308 283 273 193 157 232 211 219 200 224 222 205 98 139 127 106 69 50 56 47 28 34 53 64 68 58 47 40 20 355 348 341 329 323 320 314 318 317 306 295 288 284 283
337 325 281 269 67 215 79 30 10 349 223 226 212 98 86 76 92 91 82 68 60 45 37 39 45 51 41 16 346 339 330 326 319 315 315 313 311 303 295 287 286 289 290 288
332 290 87 195 195 246 152 79 48 28 107 47 72 67 86 74 80 77 89 69 56 50 8 357 339 334 328 321 312 309 309 311 310 309 310 308 304 299 293 293 291 288 289 291
147 313 119 204 240 265 80 60 38 19 108 27 90 108 108 127 246 109 110 89 64 24 339 319 300 295 301 303 299 304 300 303 305 307 304 302 301 299 294 291 293 300 304 302
139 120 173 224 176 281 116 98 341 216 101 68 91 74 70 42 61 117 143 280 281 279 284 286 287 287 296 299 302 303 302 302 302 301 302 301 297 297 302 306 293 283 282 286
139 164 198 229 194 236 152 116 351 94 75 85 86 69 76 46 339 285 294 289 288 283 282 289 287 294 300 301 302 304 299 296 299 299 299 299 300 297 289 284 288 291 290 287
170 202 187 181 210 126 84 88 75 86 99 96 110 88 25 337 312 308 305 312 313 311 306 302 298 299 300 302 298 300 300 298 295 295 293 288 283 286 292 287 286 294 296 291
186 129 157 218 48 82 90 99 97 95 99 74 18 3 323 307 300 304 306 309 306 301 310 312 312 308 308 305 302 303 299 289 281 278 282 288 294 294 294 298 300 303 302 302
153 237 172 176 165 155 99 99 103 94 70 12 340 333 320 313 305 306 299 295 300 314 314 314 313 304 300 298 295 295 306 291 285 286 293 298 299 302 305 306 305 300 300 304
8 31 209 58 59 91 104 97 73 47 25 5 354 339 323 314 305 304 296 317 322 314 311 306 302 299 299 301 295 288 288 286 292 294 297 300 305 311 313 314 314 310 311 311